Back to catalog

NOAA 16 DEB

AliveSSO
NORAD 41151·DEBRIS·🇺🇸 United States

Launched Sep 21, 2000 from Vandenberg Space Force Base

Loading…

Next Passes (next 24 hours)

TLE

FreshSource: Space-Track

Epoch: Sep 13, 2026, 06:31 UTC

1 41151U 00055CJ  26256.27165569  .00002629  00000-0  13209-2 0  9990
2 41151  98.7961 258.5150 0058874  91.4645 269.3275 14.16448283551849

Track NOAA 16 DEB in real time with AllMySat

Download on the App Store